TimePST,TemperatureF,Dew PointF,Humidity,Sea Level PressureIn,VisibilityMPH,Wind Direction,Wind SpeedMPH,Gust SpeedMPH,PrecipitationIn,Events,Conditions,WindDirDegrees,DateUTC
12:15 AM,33.8,30.2,87,30.09,0.2,ESE,3.5,-,N/A,,Overcast,120,2014-02-02 08:15:00
12:35 AM,33.8,30.2,87,30.08,0.5,Calm,Calm,-,N/A,,Overcast,0,2014-02-02 08:35:00
12:55 AM,33.8,30.2,87,30.08,0.5,Calm,Calm,-,N/A,,Overcast,0,2014-02-02 08:55:00
1:15 AM,33.8,30.2,87,30.08,0.5,Calm,Calm,-,N/A,,Overcast,0,2014-02-02 09:15:00
1:35 AM,33.8,30.2,87,30.07,0.5,Calm,Calm,-,N/A,,Overcast,0,2014-02-02 09:35:00
1:55 AM,33.8,30.2,87,30.07,0.5,Calm,Calm,-,N/A,,Overcast,0,2014-02-02 09:55:00
2:15 AM,33.8,30.2,87,30.07,0.5,Calm,Calm,-,N/A,,Overcast,0,2014-02-02 10:15:00
2:35 AM,32.0,28.4,87,30.07,0.5,Calm,Calm,-,N/A,,Overcast,0,2014-02-02 10:35:00
2:55 AM,32.0,28.4,87,30.07,0.2,Calm,Calm,-,N/A,,Overcast,0,2014-02-02 10:55:00
3:15 AM,32.0,28.4,87,30.06,0.2,Calm,Calm,-,N/A,,Overcast,0,2014-02-02 11:15:00
3:35 AM,30.2,28.4,93,30.06,0.2,Calm,Calm,-,N/A,,Overcast,0,2014-02-02 11:35:00
3:55 AM,30.2,28.4,93,30.06,0.2,Calm,Calm,-,N/A,,Overcast,0,2014-02-02 11:55:00
4:15 AM,30.2,28.4,93,30.06,0.5,Calm,Calm,-,N/A,,Overcast,0,2014-02-02 12:15:00
4:35 AM,30.2,28.4,93,30.06,0.8,Calm,Calm,-,N/A,,Overcast,0,2014-02-02 12:35:00
4:55 AM,30.2,26.6,86,30.05,10.0,Calm,Calm,-,N/A,,Overcast,0,2014-02-02 12:55:00
5:15 AM,28.4,26.6,93,30.05,1.5,Calm,Calm,-,N/A,,Overcast,0,2014-02-02 13:15:00
5:35 AM,28.4,26.6,93,30.05,0.2,Calm,Calm,-,N/A,,Overcast,0,2014-02-02 13:35:00
5:55 AM,30.2,26.6,86,30.05,0.8,Calm,Calm,-,N/A,,Overcast,0,2014-02-02 13:55:00
6:15 AM,30.2,26.6,86,30.05,1.8,Calm,Calm,-,N/A,,Overcast,0,2014-02-02 14:15:00
6:35 AM,30.2,28.4,93,30.05,1.5,Calm,Calm,-,N/A,,Overcast,0,2014-02-02 14:35:00
6:55 AM,30.2,28.4,93,30.05,5.0,Calm,Calm,-,N/A,,Overcast,0,2014-02-02 14:55:00
7:15 AM,30.2,28.4,93,30.06,10.0,Calm,Calm,-,N/A,,Overcast,0,2014-02-02 15:15:00
7:35 AM,30.2,28.4,93,30.06,10.0,Calm,Calm,-,N/A,,Overcast,0,2014-02-02 15:35:00
7:55 AM,30.2,26.6,86,30.06,10.0,Calm,Calm,-,N/A,,Mostly Cloudy,0,2014-02-02 15:55:00
8:15 AM,30.2,26.6,86,30.07,10.0,Calm,Calm,-,N/A,,Scattered Clouds,0,2014-02-02 16:15:00
8:35 AM,32.0,28.4,87,30.06,10.0,Calm,Calm,-,N/A,,Mostly Cloudy,0,2014-02-02 16:35:00
8:55 AM,32.0,28.4,87,30.07,10.0,SSE,3.5,-,N/A,,Overcast,150,2014-02-02 16:55:00
9:15 AM,33.8,30.2,87,30.06,10.0,SE,3.5,-,N/A,,Overcast,130,2014-02-02 17:15:00
9:35 AM,35.6,30.2,81,30.06,10.0,North,5.8,-,N/A,,Overcast,350,2014-02-02 17:35:00
9:55 AM,35.6,30.2,81,30.06,10.0,NNW,4.6,-,N/A,,Overcast,340,2014-02-02 17:55:00
10:15 AM,35.6,30.2,81,30.06,10.0,North,5.8,-,N/A,,Overcast,360,2014-02-02 18:15:00
10:35 AM,35.6,30.2,81,30.06,10.0,North,3.5,-,N/A,,Mostly Cloudy,10,2014-02-02 18:35:00
10:55 AM,37.4,30.2,75,30.05,10.0,NNW,4.6,-,N/A,,Mostly Cloudy,340,2014-02-02 18:55:00
11:15 AM,37.4,30.2,75,30.05,10.0,NNW,3.5,-,N/A,,Mostly Cloudy,330,2014-02-02 19:15:00
11:35 AM,39.2,30.2,70,30.04,10.0,NNW,8.1,-,N/A,,Scattered Clouds,330,2014-02-02 19:35:00
11:55 AM,39.2,30.2,70,30.03,10.0,NNW,8.1,-,N/A,,Mostly Cloudy,330,2014-02-02 19:55:00
12:15 PM,39.2,32.0,75,30.03,10.0,North,5.8,-,N/A,,Mostly Cloudy,350,2014-02-02 20:15:00
12:35 PM,39.2,32.0,75,30.02,10.0,NNW,5.8,-,N/A,,Overcast,330,2014-02-02 20:35:00
12:55 PM,39.2,30.2,70,30.02,10.0,NW,5.8,-,N/A,,Mostly Cloudy,320,2014-02-02 20:55:00
1:15 PM,39.2,32.0,75,30.01,10.0,NNW,8.1,-,N/A,,Mostly Cloudy,340,2014-02-02 21:15:00
1:35 PM,41.0,33.8,76,30.01,10.0,NNW,9.2,-,N/A,,Scattered Clouds,340,2014-02-02 21:35:00
1:55 PM,41.0,32.0,70,30.00,10.0,NNW,6.9,-,N/A,,Partly Cloudy,330,2014-02-02 21:55:00
2:15 PM,42.8,33.8,70,30.00,10.0,NW,4.6,-,N/A,,Mostly Cloudy,320,2014-02-02 22:15:00
2:35 PM,41.0,32.0,70,29.99,10.0,NNW,5.8,-,N/A,,Overcast,330,2014-02-02 22:35:00
2:55 PM,42.8,32.0,66,29.99,10.0,NNW,6.9,-,N/A,,Partly Cloudy,340,2014-02-02 22:55:00
3:15 PM,42.8,32.0,66,29.99,10.0,North,4.6,-,N/A,,Clear,350,2014-02-02 23:15:00
3:35 PM,42.8,33.8,70,29.99,10.0,NNW,4.6,-,N/A,,Clear,330,2014-02-02 23:35:00
3:55 PM,42.8,33.8,70,29.99,10.0,Calm,Calm,-,N/A,,Clear,0,2014-02-02 23:55:00
4:15 PM,42.8,32.0,66,29.98,10.0,WNW,3.5,-,N/A,,Clear,290,2014-02-03 00:15:00
4:35 PM,42.8,32.0,66,29.99,10.0,Calm,Calm,-,N/A,,Partly Cloudy,0,2014-02-03 00:35:00
4:55 PM,41.0,30.2,65,29.98,10.0,Calm,Calm,-,N/A,,Mostly Cloudy,0,2014-02-03 00:55:00
5:15 PM,41.0,32.0,70,29.98,10.0,Calm,Calm,-,N/A,,Overcast,0,2014-02-03 01:15:00
5:35 PM,41.0,32.0,70,29.98,10.0,Calm,Calm,-,N/A,,Overcast,0,2014-02-03 01:35:00
5:55 PM,39.2,33.8,81,29.97,10.0,Calm,Calm,-,N/A,,Overcast,0,2014-02-03 01:55:00
6:15 PM,39.2,33.8,81,29.98,10.0,Calm,Calm,-,N/A,,Overcast,0,2014-02-03 02:15:00
6:35 PM,39.2,32.0,75,29.98,10.0,Calm,Calm,-,N/A,,Overcast,0,2014-02-03 02:35:00
6:55 PM,37.4,32.0,81,29.98,10.0,Calm,Calm,-,N/A,,Overcast,0,2014-02-03 02:55:00
7:15 PM,37.4,30.2,75,29.99,10.0,Calm,Calm,-,N/A,,Overcast,0,2014-02-03 03:15:00
7:35 PM,37.4,32.0,81,29.99,10.0,Calm,Calm,-,N/A,,Overcast,0,2014-02-03 03:35:00
7:55 PM,37.4,32.0,81,29.99,10.0,NNW,4.6,-,N/A,,Overcast,340,2014-02-03 03:55:00
8:15 PM,37.4,32.0,81,29.99,10.0,NE,4.6,-,N/A,,Overcast,40,2014-02-03 04:15:00
8:35 PM,37.4,32.0,81,29.99,10.0,Calm,Calm,-,N/A,,Overcast,0,2014-02-03 04:35:00
8:55 PM,37.4,32.0,81,30.00,10.0,Calm,Calm,-,N/A,,Overcast,0,2014-02-03 04:55:00
9:15 PM,37.4,32.0,81,30.01,10.0,NNW,4.6,-,N/A,,Overcast,330,2014-02-03 05:15:00
9:35 PM,37.4,33.8,87,30.01,8.0,NNW,3.5,-,0.01,,Overcast,330,2014-02-03 05:35:00
9:55 PM,37.4,33.8,87,30.01,10.0,North,4.6,-,0.01,,Overcast,350,2014-02-03 05:55:00
10:15 PM,37.4,33.8,87,30.01,8.0,Calm,Calm,-,0.01,,Overcast,0,2014-02-03 06:15:00
10:35 PM,37.4,32.0,81,30.01,10.0,Calm,Calm,-,0.01,,Overcast,0,2014-02-03 06:35:00
10:55 PM,37.4,32.0,81,30.02,10.0,Calm,Calm,-,0.01,,Scattered Clouds,0,2014-02-03 06:55:00
11:15 PM,35.6,30.2,81,30.03,10.0,Calm,Calm,-,N/A,,Scattered Clouds,0,2014-02-03 07:15:00
11:35 PM,35.6,30.2,81,30.03,10.0,NNE,3.5,-,N/A,,Overcast,20,2014-02-03 07:35:00
11:55 PM,33.8,30.2,87,30.04,10.0,Calm,Calm,-,N/A,,Overcast,0,2014-02-03 07:55:00